Vertical_Velocity
4 3 -22 9 4 -1 -1 -1 2 -3 -21 -1 2 3 -4 -6 -12 -15 -7 -4 -7 -15 -10 -3 -7 -4 2 -2 -2 -3 -5 16 5 1 -3 0 -7 3 -3 1 12 9 4 -33
6 -7 9 5 -2 -2 -2 4 -15 -4 -2 6 -13 -13 -7 -2 -3 -2 -6 -7 -7 -3 -10 -8 -1 -4 3 0 3 -1 1 5 -2 10 3 3 6 8 11 7 8 14 4 5
1 -6 3 4 5 -0 8 -0 1 1 -8 -4 -2 -44 -17 -2 -3 -4 -8 -6 -3 -1 1 -3 4 -1 -2 -2 -3 0 -7 -6 9 7 4 12 12 -9 -8 1 5 2 4 7
-2 -9 -2 3 -3 6 2 0 5 3 5 -1 1 -27 17 0 3 -5 -1 -2 2 -0 1 3 -4 -0 2 2 -3 -3 8 7 1 4 -6 2 -2 7 -2 -2 -0 8 8 9
-1 -1 1 0 1 5 -9 -2 -2 -0 1 3 6 9 3 2 3 0 0 -4 -5 -9 -13 -10 -4 -6 3 1 7 4 -4 11 10 11 9 -0 -7 14 4 -3 -6 -4 8 6
-5 3 -1 -4 2 1 5 1 -1 -2 5 5 11 13 -67 -1 -8 2 -5 -4 -4 1 1 -3 -4 -5 -10 -4 -1 5 8 -1 -6 -2 8 7 11 14 -3 8 9 -2 4 2
3 -2 3 4 1 -1 2 1 -4 -1 4 -11 6 11 -29 1 2 2 -0 -4 -2 -1 -3 -1 1 5 1 -6 -4 -4 -3 10 5 8 11 6 5 7 -0 -7 -9 13 -7 -9
-2 -6 3 1 1 -1 -1 0 -4 -3 -0 -3 -1 -5 -13 -3 -1 1 2 7 4 -5 -6 -7 -5 -4 4 -1 -7 3 1 -3 12 9 10 14 21 9 -22 54 27 19 -7 24
-2 -1 3 2 3 -2 2 -3 2 2 2 3 -6 -7 -3 -1 -2 2 8 4 -5 -3 7 1 2 -2 1 -1 -1 4 -2 -1 -11 -10 40 25 18 42 45 50 27 122 95 64
-1 -2 -1 2 3 1 -2 1 1 1 -0 -1 -6 -2 -8 3 2 -1 1 2 6 -9 -6 -3 -5 -4 -2 -0 -4 -5 -11 0 -20 -20 -5 11 12 2 -20 7 -36 17 24 41
1 -1 -0 1 -0 -2 0 -1 -2 1 4 -1 -1 -11 3 -0 -1 -1 -0 3 -10 2 -7 -6 -5 -1 2 -7 2 -9 -6 -8 -19 -1 -4 -15 -25 -18 15 15 -14 -20 7 24
-3 0 -1 -3 -0 1 1 -1 8 10 -7 -1 1 -30 -17 -3 1 -4 -2 6 -20 -7 -5 3 -0 -4 -1 -4 -4 4 0 4 5 3 -6 3 -13 -4 8 -20 -14 -5 8 -5
-4 2 -4 -7 1 7 6 6 10 7 7 -4 4 -9 -0 6 -1 5 -9 -7 -7 -2 -13 1 8 2 3 2 5 -14 -11 -8 -0 -4 -1 -7 -1 8 0 -5 -35 -1 7 -11
1 2 -5 -8 2 3 -7 -6 9 13 6 -10 -14 -18 -23 -11 -6 -12 -0 2 -9 8 -19 -4 -1 0 2 -1 -0 -2 -5 -9 -8 1 -4 1 -10 -0 11 -14 -8 7 10 -2
3 -1 -1 -5 1 2 -3 -4 -1 9 8 13 -15 1 -5 7 2 -0 3 -0 -5 3 9 -3 -7 -6 7 8 8 5 -1 3 -2 -3 -4 -5 2 5 3 8 11 -9 2 4
-6 -2 -0 -16 3 -1 -9 -0 2 3 -4 3 5 -7 -7 -7 -13 -9 -0 5 3 1 -1 2 1 1 4 5 1 1 6 9 4 -4 -12 0 4 -2 -4 -8 -2 -3 -7 -1
-2 -3 -3 -22 6 1 -0 -17 7 -7 2 11 4 -7 -1 7 10 -2 -4 -7 -3 5 -0 -4 2 3 3 1 -2 -1 2 3 7 3 -3 -1 -5 -6 7 1 -5 -2 0 -2
1 5 10 -11 8 1 -23 -1 10 4 -2 9 2 5 -11 -7 -1 -7 2 4 3 8 8 3 2 4 5 0 1 2 -1 -3 -1 -3 -10 -7 0 -0 -2 -11 -7 -3 -1 0
4 9 -3 0 1 -16 -37 -1 -1 4 -29 10 -8 1 3 5 7 -17 12 7 -2 -4 -4 -2 -0 -1 -2 -10 -3 -1 -8 -6 -1 3 -1 0 -4 -3 -1 2 -2 -2 1 -1
1 0 2 8 2 -2 -23 4 2 7 -26 7 5 4 3 9 -2 -32 8 9 -4 -2 -1 -6 1 3 -1 -7 3 -0 -2 -3 -6 -0 -3 -3 2 -6 -3 -4 1 2 2 6
-1 2 -0 -1 2 -16 -2 -4 7 12 -23 3 9 -5 -8 -3 13 -13 -3 -8 5 0 -7 2 -1 -3 -6 -1 2 -3 2 -8 5 3 -5 -2 -3 1 2 -3 1 4 0 3
2 -1 -3 5 3 -11 1 -3 12 11 -16 0 -12 -0 -8 -4 -9 -3 -7 -4 3 0 -2 4 4 -2 -6 -6 1 -6 -5 7 -0 0 -2 1 -4 2 -2 -5 1 -5 -3 -1
-9 -2 -3 4 -16 -4 3 -4 1 1 -3 -2 -5 1 1 -2 -1 3 -5 -2 -2 3 -2 0 -2 -4 -1 -2 -0 -10 0 1 3 6 2 -0 -4 -5 -7 1 0 -3 1 -2
-5 6 -13 15 -1 -4 -4 -3 2 -2 -3 -1 0 0 1 -8 -1 -5 -4 -2 -3 3 -2 3 4 -1 -6 6 -0 -3 2 1 -3 2 1 1 -1 1 -0 -4 -5 1 1 3
8 -1 1 -10 -7 -4 2 1 -1 -7 0 -1 1 -0 -3 -1 1 -3 -2 -3 -2 -2 -1 3 -1 -1 -2 5 -2 -0 0 7 -2 3 1 0 -0 1 -2 -1 -0 1 3 2
6 -4 -2 -10 2 0 -0 1 0 -5 -6 -2 -4 -3 5 -0 1 4 -0 1 -3 0 2 -0 -1 -3 8 -2 -5 1 3 0 -0 -1 2 -0 3 2 3 4 4 4 -1 -0
Height
3089 3090 3088 3092 3094 3095 3094 3093 3093 3092 3093 3084 3080 3078 3084 3085 3084 3081 3078 3077 3077 3076 3074 3072 3070 3070 3070 3072 3074 3076 3075 3078 3077 3078 3079 3080 3081 3079 3079 3080 3082 3085 3085 3089
3085 3082 3087 3086 3087 3089 3088 3086 3085 3086 3089 3087 3080 3062 3075 3078 3074 3071 3068 3069 3069 3069 3068 3065 3065 3066 3065 3067 3068 3068 3068 3067 3068 3070 3072 3069 3071 3071 3071 3069 3070 3074 3076 3078
3079 3081 3082 3082 3082 3083 3082 3082 3081 3083 3084 3083 3079 3053 3068 3068 3067 3064 3064 3062 3059 3059 3059 3058 3057 3058 3058 3058 3060 3061 3061 3059 3058 3059 3061 3060 3060 3062 3063 3062 3060 3060 3063 3066
3074 3075 3074 3076 3076 3079 3075 3079 3078 3080 3080 3079 3080 3062 3066 3064 3059 3058 3056 3056 3056 3055 3055 3053 3052 3049 3048 3046 3046 3050 3051 3049 3047 3046 3046 3048 3049 3051 3055 3053 3051 3049 3051 3055
3068 3068 3069 3070 3071 3074 3071 3074 3074 3074 3074 3075 3073 3076 3052 3055 3054 3054 3053 3052 3052 3053 3052 3049 3045 3043 3039 3038 3036 3037 3040 3039 3037 3034 3031 3035 3039 3042 3041 3041 3040 3038 3039 3041
3061 3065 3066 3066 3068 3069 3069 3069 3069 3069 3069 3068 3058 3065 3041 3049 3049 3046 3046 3045 3045 3044 3042 3040 3037 3034 3033 3029 3026 3024 3025 3023 3022 3023 3023 3021 3027 3027 3025 3026 3026 3026 3027 3028
3056 3057 3060 3061 3061 3063 3064 3066 3067 3066 3064 3055 3053 3055 3041 3039 3038 3038 3037 3036 3037 3036 3034 3033 3031 3028 3024 3023 3020 3019 3016 3016 3013 3012 3013 3013 3013 3013 3009 3009 3007 3011 3011 3013
3054 3053 3054 3054 3056 3058 3060 3063 3064 3062 3055 3051 3050 3041 3036 3035 3034 3033 3033 3032 3029 3027 3030 3028 3025 3022 3018 3013 3011 3009 3007 3006 3004 3005 3000 3002 3002 2999 2994 2973 2984 2994 3002 3001
3052 3050 3049 3051 3052 3054 3056 3057 3059 3057 3053 3052 3041 3036 3036 3032 3031 3031 3030 3028 3027 3026 3025 3022 3017 3015 3012 3008 3004 3002 3002 2998 2996 2994 2981 2988 2987 2987 2982 2985 2986 2980 2985 2978
3047 3048 3048 3049 3049 3049 3051 3054 3054 3054 3053 3045 3035 3032 3029 3028 3028 3027 3026 3025 3022 3018 3017 3016 3014 3011 3008 3005 3000 2997 2994 2991 2988 2988 2982 2971 2972 2973 2975 2978 2977 2974 2980 2976
3042 3043 3044 3043 3043 3044 3046 3045 3047 3048 3044 3039 3032 3029 3024 3023 3023 3022 3021 3018 3014 3013 3010 3009 3007 3007 3003 3000 2997 2994 2990 2988 2986 2984 2978 2976 2970 2972 2974 2970 2969 2970 2971 2972
3040 3039 3036 3038 3040 3041 3040 3038 3040 3040 3036 3032 3029 3021 3019 3021 3018 3018 3017 3011 3010 3009 3006 3005 3002 3000 2997 2994 2993 2990 2988 2984 2983 2978 2973 2973 2971 2971 2966 2962 2965 2971 2964 2965
3035 3034 3033 3031 3034 3034 3033 3032 3031 3030 3028 3024 3025 3014 3015 3013 3012 3010 3008 3007 3005 3002 3002 3000 2998 2996 2993 2988 2985 2983 2984 2982 2979 2974 2970 2970 2970 2967 2964 2958 2964 2967 2963 2963
3031 3030 3030 3030 3031 3032 3031 3028 3027 3026 3021 3018 3013 3011 3010 3009 3006 3005 3002 3000 2996 2996 2996 2995 2993 2991 2988 2985 2982 2981 2978 2977 2974 2970 2969 2967 2966 2965 2961 2959 2961 2962 2961 2960
3027 3024 3024 3024 3024 3025 3023 3018 3018 3016 3014 3011 3007 3006 3004 3002 2999 2998 2995 2993 2990 2990 2989 2986 2986 2985 2982 2979 2977 2976 2975 2973 2971 2970 2965 2964 2963 2960 2959 2956 2956 2957 2958 2957
3018 3019 3019 3016 3018 3020 3016 3010 3008 3006 3004 3000 2999 2996 2997 2995 2991 2990 2989 2987 2986 2984 2982 2981 2980 2978 2977 2974 2972 2970 2970 2967 2965 2964 2963 2960 2957 2955 2955 2951 2951 2952 2953 2953
3014 3015 3016 3010 3014 3013 3009 3004 3002 3000 2999 2997 2993 2990 2990 2990 2987 2985 2982 2980 2978 2976 2975 2974 2972 2969 2967 2965 2963 2961 2960 2958 2957 2956 2956 2956 2953 2953 2950 2947 2947 2947 2950 2950
3008 3009 3011 3009 3011 3011 3000 2999 2996 2995 2993 2991 2989 2987 2984 2983 2980 2978 2976 2973 2971 2970 2967 2965 2963 2961 2959 2957 2956 2953 2950 2949 2948 2946 2945 2943 2942 2941 2942 2941 2943 2944 2945 2944
3002 3003 3005 3006 3005 3001 2996 2993 2991 2988 2986 2984 2983 2980 2978 2976 2972 2970 2970 2967 2965 2963 2960 2957 2955 2953 2950 2949 2947 2944 2943 2942 2941 2940 2939 2938 2936 2934 2935 2936 2936 2937 2936 2937
3000 3001 3002 3000 2998 2996 2989 2989 2986 2982 2976 2977 2974 2972 2970 2968 2963 2960 2961 2958 2955 2953 2950 2948 2946 2943 2940 2939 2937 2934 2933 2932 2931 2930 2929 2930 2929 2928 2927 2927 2927 2928 2929 2928
2997 2996 2994 2992 2990 2985 2980 2981 2979 2978 2975 2970 2968 2965 2962 2958 2955 2949 2947 2944 2942 2939 2937 2935 2932 2930 2928 2927 2924 2922 2921 2920 2921 2920 2919 2919 2919 2919 2918 2917 2918 2918 2919 2918
2992 2992 2988 2985 2982 2979 2977 2976 2976 2971 2965 2962 2957 2953 2949 2944 2940 2937 2934 2932 2930 2928 2926 2925 2922 2920 2918 2915 2912 2909 2907 2908 2908 2909 2909 2909 2908 2907 2907 2907 2908 2909 2908 2909
2987 2987 2984 2982 2974 2973 2971 2968 2965 2962 2955 2951 2948 2944 2940 2934 2930 2927 2923 2921 2919 2918 2916 2914 2912 2909 2907 2905 2902 2900 2898 2898 2898 2898 2899 2899 2899 2898 2896 2894 2894 2895 2898 2899
2978 2978 2976 2972 2966 2966 2962 2958 2955 2952 2947 2943 2938 2933 2929 2923 2919 2914 2911 2908 2906 2905 2903 2902 2900 2898 2896 2896 2893 2890 2889 2889 2889 2889 2889 2889 2888 2887 2887 2886 2885 2886 2887 2888
2973 2972 2969 2964 2961 2957 2955 2952 2947 2942 2937 2931 2926 2921 2916 2910 2904 2900 2895 2892 2891 2889 2888 2888 2886 2885 2884 2883 2880 2877 2876 2879 2880 2880 2880 2879 2878 2878 2876 2875 2875 2875 2875 2876
2965 2966 2963 2957 2956 2951 2947 2943 2938 2931 2925 2920 2913 2907 2904 2899 2892 2887 2881 2878 2875 2874 2874 2874 2875 2874 2874 2873 2872 2870 2870 2872 2872 2872 2872 2870 2869 2868 2866 2866 2865 2863 2863 2863